Location: *
(37.5724°S, 58.0067°E)
Time: 11:35:17
(UTC+00:00)

Meteor 2-10 - Pass Details

Date: 26 September 2020
Orbit: 737 x 869 km, 81.2° (Epoch: 29 October)

Event Time Altitude Azimuth Distance (km) Brightness Sun altitude
Rises 15:45:46 0° 191° (S) 3,468 7.8 -19.8°
Reaches altitude 10° 15:48:13 10° 192° (SSW) 2,534 7.1 -20.2°
Maximum altitude 15:54:00 79° 276° (W) 898 4.3 -21.3°
Enters shadow 15:59:22 12° 2° (N) 2,370 6.3 -22.3°
